Location: ??????
(41.3164°N, 22.6615°E)
Time: 19:32:58
(UTC+00:00)

Cosmos 1300 - Pass Details

Date: 07 June 2022
Orbit: 506 x 508 km, 82.5° (Epoch: 30 June)

Event Time Altitude Azimuth Distance (km) Brightness Sun altitude
Rises 21:09:43 0° 4° (N) 2,618 7.4 -23.3°
Reaches altitude 10° 21:12:06 10° 17° (NNE) 1,728 6.1 -23.5°
Enters shadow 21:14:47 25° 60° (ENE) 1,044 4.3 -23.6°
